Regional Weather Roundup
Issued by NWS Cleveland, OH

Home | Current Version | Previous Version | Text Only | Print | Product List | Glossary Off
Versions: 1 2 3 4 5 6 7 8 9 10 11 12 13 14 15 16 17 18 19 20 21 22 23 24 25 26 27 28 29 30 31 32 33 34 35 36 37 38 39 40 41 42 43 44 45 46 47 48 49 50

000
ASUS41 KCLE 200610
RWRCLE
OHIO REGIONAL WEATHER ROUNDUP
NATIONAL WEATHER SERVICE WILMINGTON, OH
200 AM EDT SUN APR 20 2014

NOTE: "FAIR" INDICATES FEW OR NO CLOUDS BELOW 12,000 FEET WITH NO
SIGNIFICANT WEATHER AND/OR OBSTRUCTIONS TO VISIBILITY.

OHZ001>008-015>018-024>027-034-035-043-044-200700-
   NORTHWEST OHIO

CITY           SKY/WX    TMP DP  RH WIND       PRES   REMARKS
DEFIANCE       FAIR      40  29  64 NE3       30.32F
FINDLAY        FAIR      40  29  64 NE6       30.30R
TOLEDO EXPRESS FAIR      38  31  76 CALM      30.32F
TOLEDO METCALF FAIR      41  31  67 NE8       30.34R
LIMA           FAIR      38  31  76 E5        30.28F
$$

OHZ009>014-019>023-028>033-038-089-200700-
   NORTHEAST OHIO

CITY           SKY/WX    TMP DP  RH WIND       PRES   REMARKS
CLE-HOPKINS    FAIR      42  29  59 CALM      30.34S
CLE-LAKEFRONT  FAIR      43  30  60 CALM      30.31S
CUY CO. ARPT   NOT AVBL
LORAIN-ELYRIA  FAIR      38  32  79 CALM      30.32S
ASHTABULA      FAIR      34  28  79 E5        30.32F WCI  30
AKRON-CANTON   FAIR      42  29  59 NE6       30.30F
WOOSTER        FAIR      38  30  73 CALM      30.30F
MANSFIELD      FAIR      39  30  70 CALM      30.30S
YOUNGSTOWN     FAIR      35  29  78 E7        30.30S WCI  29
$$

OHZ042-051>053-060>062-070>072-077>081-200700-
  SOUTHWEST OHIO

CITY           SKY/WX    TMP DP  RH WIND       PRES   REMARKS
CINC-COVINGTON FAIR      54  34  46 NE7       30.24F
CINC-LUNKEN    FAIR      43  40  89 CALM      30.26S
HAMILTON       FAIR      43  37  79 CALM      30.27S
DAYTON         FAIR      46  33  60 NE16G31   30.27F
WRIGHT-PAT AFB FAIR      46  33  60 NE5       30.27F
DAYTON GENERAL FAIR      45  34  65 NE8       30.25F
WILMINGTON     FAIR      41  34  76 NE10      30.25F
$$

OHZ036-037-039>041-045>050-054>059-063>069-073>076-082>088-200700-
  CENTRAL AND SOUTHEAST OHIO

CITY           SKY/WX    TMP DP  RH WIND       PRES   REMARKS
COLUMBUS       FAIR      48  31  51 N6        30.27F
OSU AIRPORT    FAIR      44  33  65 NE5       30.28S
BOLTON FIELD   FAIR      44  35  69 N5        30.28S
RICKENBACK AFB FAIR      47  31  52 N7        30.26F
NEWARK         FAIR      46  30  53 N5        30.27F
MARION         FAIR      38  31  76 E3        30.29F
LANCASTER      FAIR      40  33  76 NW3       30.27F
ZANESVILLE     FAIR      46  26  45 CALM      30.27F
NEW PHILLY     FAIR      43  29  57 CALM      30.29F
$$



USA.gov is the U.S. government's official web portal to all federal, state and local government web resources and services.